Year,Month,Day,Hour,Minute,Value (Times are PST for windgust in km/hr)
2018,06,30,00,00,16.10
2018,06,30,00,01,19.30
2018,06,30,00,02,16.10
2018,06,30,00,03,16.10
2018,06,30,00,04,19.30
2018,06,30,00,05,20.90
2018,06,30,00,06,16.10
2018,06,30,00,07,20.90
2018,06,30,00,08,17.70
2018,06,30,00,09,20.90
2018,06,30,00,10,19.30
2018,06,30,00,11,17.70
2018,06,30,00,12,19.30
2018,06,30,00,13,24.20
2018,06,30,00,14,19.30
2018,06,30,00,15,17.70
2018,06,30,00,16,17.70
2018,06,30,00,17,17.70
2018,06,30,00,18,19.30
2018,06,30,00,19,16.10
2018,06,30,00,20,16.10
2018,06,30,00,21,14.50
2018,06,30,00,22,14.50
2018,06,30,00,23,12.90
2018,06,30,00,24,16.10
2018,06,30,00,25,16.10
2018,06,30,00,26,14.50
2018,06,30,00,27,14.50
2018,06,30,00,28,12.90
2018,06,30,00,29,14.50
2018,06,30,00,30,14.50
2018,06,30,00,31,16.10
2018,06,30,00,32,16.10
2018,06,30,00,33,16.10
2018,06,30,00,34,19.30
2018,06,30,00,35,17.70
2018,06,30,00,36,19.30
2018,06,30,00,37,20.90
2018,06,30,00,38,17.70
2018,06,30,00,39,17.70
2018,06,30,00,40,17.70
2018,06,30,00,41,14.50
2018,06,30,00,42,16.10
2018,06,30,00,43,11.30
2018,06,30,00,44,19.30
2018,06,30,00,45,14.50
2018,06,30,00,46,16.10
2018,06,30,00,47,17.70
2018,06,30,00,48,17.70
2018,06,30,00,49,12.90
2018,06,30,00,50,14.50
2018,06,30,00,51,16.10
2018,06,30,00,52,16.10
2018,06,30,00,53,16.10
2018,06,30,00,54,19.30
2018,06,30,00,55,17.70
2018,06,30,00,56,17.70
2018,06,30,00,57,16.10
2018,06,30,00,58,16.10
2018,06,30,00,59,16.10
2018,06,30,01,00,17.70
2018,06,30,01,01,17.70
2018,06,30,01,02,17.70
2018,06,30,01,03,17.70
2018,06,30,01,04,17.70
2018,06,30,01,05,16.10
2018,06,30,01,06,17.70
2018,06,30,01,07,16.10
2018,06,30,01,08,17.70
2018,06,30,01,09,14.50
2018,06,30,01,10,17.70
2018,06,30,01,11,19.30
2018,06,30,01,12,22.50
2018,06,30,01,13,22.50
2018,06,30,01,14,20.90
2018,06,30,01,15,19.30
2018,06,30,01,16,19.30
2018,06,30,01,17,19.30
2018,06,30,01,18,17.70
2018,06,30,01,19,19.30
2018,06,30,01,20,20.90
2018,06,30,01,21,20.90
2018,06,30,01,22,22.50
2018,06,30,01,23,20.90
2018,06,30,01,24,22.50
2018,06,30,01,25,19.30
2018,06,30,01,26,20.90
2018,06,30,01,27,19.30
2018,06,30,01,28,19.30
2018,06,30,01,29,17.70
2018,06,30,01,30,17.70
2018,06,30,01,31,17.70
2018,06,30,01,32,17.70
2018,06,30,01,33,16.10
2018,06,30,01,34,17.70
2018,06,30,01,35,17.70
2018,06,30,01,36,19.30
2018,06,30,01,37,16.10
2018,06,30,01,38,17.70
2018,06,30,01,39,17.70
2018,06,30,01,40,17.70
2018,06,30,01,41,12.90
2018,06,30,01,42,12.90
2018,06,30,01,43,14.50
2018,06,30,01,44,11.30
2018,06,30,01,45,14.50
2018,06,30,01,46,11.30
2018,06,30,01,47,14.50
2018,06,30,01,48,11.30
2018,06,30,01,49,14.50
2018,06,30,01,50,14.50
2018,06,30,01,51,14.50
2018,06,30,01,52,14.50
2018,06,30,01,53,14.50
2018,06,30,01,54,16.10
2018,06,30,01,55,16.10
2018,06,30,01,56,17.70
2018,06,30,01,57,19.30
2018,06,30,01,58,17.70
2018,06,30,01,59,19.30
2018,06,30,02,00,19.30
2018,06,30,02,01,19.30
2018,06,30,02,02,19.30
2018,06,30,02,03,19.30
2018,06,30,02,04,19.30
2018,06,30,02,05,20.90
2018,06,30,02,06,20.90
2018,06,30,02,07,19.30
2018,06,30,02,08,20.90
2018,06,30,02,09,19.30
2018,06,30,02,10,19.30
2018,06,30,02,11,22.50
2018,06,30,02,12,20.90
2018,06,30,02,13,19.30
2018,06,30,02,14,20.90
2018,06,30,02,15,20.90
2018,06,30,02,16,22.50
2018,06,30,02,17,22.50
2018,06,30,02,18,22.50
2018,06,30,02,19,22.50
2018,06,30,02,20,20.90
2018,06,30,02,21,24.20
2018,06,30,02,22,25.70
2018,06,30,02,23,25.70
2018,06,30,02,24,24.20
2018,06,30,02,25,25.70
2018,06,30,02,26,24.20
2018,06,30,02,27,27.40
2018,06,30,02,28,27.40
2018,06,30,02,29,27.40
2018,06,30,02,30,27.40
2018,06,30,02,31,29.00
2018,06,30,02,32,27.40
2018,06,30,02,33,27.40
2018,06,30,02,34,27.40
2018,06,30,02,35,27.40
2018,06,30,02,36,25.70
2018,06,30,02,37,29.00
2018,06,30,02,38,25.70
2018,06,30,02,39,25.70
2018,06,30,02,40,24.20
2018,06,30,02,41,24.20
2018,06,30,02,42,24.20
2018,06,30,02,43,24.20
2018,06,30,02,44,24.20
2018,06,30,02,45,25.70
2018,06,30,02,46,27.40
2018,06,30,02,47,24.20
2018,06,30,02,48,25.70
2018,06,30,02,49,27.40
2018,06,30,02,50,25.70
2018,06,30,02,51,25.70
2018,06,30,02,52,25.70
2018,06,30,02,53,25.70
2018,06,30,02,54,25.70
2018,06,30,02,55,24.20
2018,06,30,02,56,24.20
2018,06,30,02,57,24.20
2018,06,30,02,58,22.50
2018,06,30,02,59,22.50
2018,06,30,03,00,22.50
2018,06,30,03,01,22.50
2018,06,30,03,02,20.90
2018,06,30,03,03,19.30
2018,06,30,03,04,20.90
2018,06,30,03,05,19.30
2018,06,30,03,06,19.30
2018,06,30,03,07,19.30
2018,06,30,03,08,17.70
2018,06,30,03,09,16.10
2018,06,30,03,10,17.70
2018,06,30,03,11,17.70
2018,06,30,03,12,14.50
2018,06,30,03,13,16.10
2018,06,30,03,14,16.10
2018,06,30,03,15,17.70
2018,06,30,03,16,16.10
2018,06,30,03,17,14.50
2018,06,30,03,18,14.50
2018,06,30,03,19,16.10
2018,06,30,03,20,14.50
2018,06,30,03,21,16.10
2018,06,30,03,22,11.30
2018,06,30,03,23,11.30
2018,06,30,03,24,12.90
2018,06,30,03,25,17.70
2018,06,30,03,26,14.50
2018,06,30,03,27,12.90
2018,06,30,03,28,16.10
2018,06,30,03,29,14.50
2018,06,30,03,30,16.10
2018,06,30,03,31,16.10
2018,06,30,03,32,17.70
2018,06,30,03,33,14.50
2018,06,30,03,34,17.70
2018,06,30,03,35,22.50
2018,06,30,03,36,19.30
2018,06,30,03,37,20.90
2018,06,30,03,38,17.70
2018,06,30,03,39,22.50
2018,06,30,03,40,24.20
2018,06,30,03,41,24.20
2018,06,30,03,42,27.40
2018,06,30,03,43,32.20
2018,06,30,03,44,27.40
2018,06,30,03,45,29.00
2018,06,30,03,46,30.60
2018,06,30,03,47,25.70
2018,06,30,03,48,22.50
2018,06,30,03,49,24.20
2018,06,30,03,50,22.50
2018,06,30,03,51,20.90
2018,06,30,03,52,19.30
2018,06,30,03,53,14.50
2018,06,30,03,54,17.70
2018,06,30,03,55,17.70
2018,06,30,03,56,16.10
2018,06,30,03,57,14.50
2018,06,30,03,58,16.10
2018,06,30,03,59,17.70
2018,06,30,04,00,16.10
2018,06,30,04,01,19.30
2018,06,30,04,02,19.30
2018,06,30,04,03,19.30
2018,06,30,04,04,16.10
2018,06,30,04,05,17.70
2018,06,30,04,06,19.30
2018,06,30,04,07,20.90
2018,06,30,04,08,20.90
2018,06,30,04,09,19.30
2018,06,30,04,10,19.30
2018,06,30,04,11,19.30
2018,06,30,04,12,17.70
2018,06,30,04,13,20.90
2018,06,30,04,14,17.70
2018,06,30,04,15,16.10
2018,06,30,04,16,16.10
2018,06,30,04,17,14.50
2018,06,30,04,18,19.30
2018,06,30,04,19,22.50
2018,06,30,04,20,19.30
2018,06,30,04,21,17.70
2018,06,30,04,22,16.10
2018,06,30,04,23,24.20
2018,06,30,04,24,22.50
2018,06,30,04,25,25.70
2018,06,30,04,26,22.50
2018,06,30,04,27,22.50
2018,06,30,04,28,20.90
2018,06,30,04,29,25.70
2018,06,30,04,30,24.20
2018,06,30,04,31,27.40
2018,06,30,04,32,25.70
2018,06,30,04,33,27.40
2018,06,30,04,34,25.70
2018,06,30,04,35,24.20
2018,06,30,04,36,24.20
2018,06,30,04,37,22.50
2018,06,30,04,38,22.50
2018,06,30,04,39,25.70
2018,06,30,04,40,27.40
2018,06,30,04,41,25.70
2018,06,30,04,42,30.60
2018,06,30,04,43,25.70
2018,06,30,04,44,25.70
2018,06,30,04,45,29.00
2018,06,30,04,46,30.60
2018,06,30,04,47,29.00
2018,06,30,04,48,27.40
2018,06,30,04,49,32.20
2018,06,30,04,50,32.20
2018,06,30,04,51,32.20
2018,06,30,04,52,32.20
2018,06,30,04,53,32.20
2018,06,30,04,54,25.70
2018,06,30,04,55,27.40
2018,06,30,04,56,27.40
2018,06,30,04,57,29.00
2018,06,30,04,58,33.80
2018,06,30,04,59,40.20
2018,06,30,05,00,33.80
2018,06,30,05,01,30.60
2018,06,30,05,02,33.80
2018,06,30,05,03,33.80
2018,06,30,05,04,30.60
2018,06,30,05,05,29.00
2018,06,30,05,06,30.60
2018,06,30,05,07,37.00
2018,06,30,05,08,30.60
2018,06,30,05,09,29.00
2018,06,30,05,10,32.20
2018,06,30,05,11,30.60
2018,06,30,05,12,29.00
2018,06,30,05,13,27.40
2018,06,30,05,14,29.00
2018,06,30,05,15,25.70
2018,06,30,05,16,29.00
2018,06,30,05,17,27.40
2018,06,30,05,18,29.00
2018,06,30,05,19,24.20
2018,06,30,05,20,30.60
2018,06,30,05,21,30.60
2018,06,30,05,22,29.00
2018,06,30,05,23,32.20
2018,06,30,05,24,29.00
2018,06,30,05,25,30.60
2018,06,30,05,26,30.60
2018,06,30,05,27,38.60
2018,06,30,05,28,32.20
2018,06,30,05,29,35.40
2018,06,30,05,30,25.70
2018,06,30,05,31,30.60
2018,06,30,05,32,29.00
2018,06,30,05,33,27.40
2018,06,30,05,34,24.20
2018,06,30,05,35,27.40
2018,06,30,05,36,27.40
2018,06,30,05,37,27.40
2018,06,30,05,38,25.70
2018,06,30,05,39,22.50
2018,06,30,05,40,29.00
2018,06,30,05,41,29.00
2018,06,30,05,42,30.60
2018,06,30,05,43,27.40
2018,06,30,05,44,27.40
2018,06,30,05,45,30.60
2018,06,30,05,46,27.40
2018,06,30,05,47,27.40
2018,06,30,05,48,30.60
2018,06,30,05,49,32.20
2018,06,30,05,50,30.60
2018,06,30,05,51,33.80
2018,06,30,05,52,30.60
2018,06,30,05,53,29.00
2018,06,30,05,54,33.80
2018,06,30,05,55,30.60
2018,06,30,05,56,29.00
2018,06,30,05,57,30.60
2018,06,30,05,58,30.60
2018,06,30,05,59,33.80
2018,06,30,06,00,29.00
2018,06,30,06,01,27.40
2018,06,30,06,02,25.70
2018,06,30,06,03,29.00
2018,06,30,06,04,27.40
2018,06,30,06,05,25.70
2018,06,30,06,06,27.40
2018,06,30,06,07,25.70
2018,06,30,06,08,24.20
2018,06,30,06,09,25.70
2018,06,30,06,10,27.40
2018,06,30,06,11,25.70
2018,06,30,06,12,22.50
2018,06,30,06,13,24.20
2018,06,30,06,14,20.90
2018,06,30,06,15,22.50
2018,06,30,06,16,20.90
2018,06,30,06,17,27.40
2018,06,30,06,18,24.20
2018,06,30,06,19,27.40
2018,06,30,06,20,24.20
2018,06,30,06,21,19.30
2018,06,30,06,22,20.90
2018,06,30,06,23,29.00
2018,06,30,06,24,29.00
2018,06,30,06,25,24.20
2018,06,30,06,26,25.70
2018,06,30,06,27,25.70
2018,06,30,06,28,29.00
2018,06,30,06,29,22.50
2018,06,30,06,30,22.50
2018,06,30,06,31,25.70
2018,06,30,06,32,20.90
2018,06,30,06,33,16.10
2018,06,30,06,34,19.30
2018,06,30,06,35,19.30
2018,06,30,06,36,17.70
2018,06,30,06,37,19.30
2018,06,30,06,38,17.70
2018,06,30,06,39,17.70
2018,06,30,06,40,16.10
2018,06,30,06,41,19.30
2018,06,30,06,42,17.70
2018,06,30,06,43,17.70
2018,06,30,06,44,19.30
2018,06,30,06,45,19.30
2018,06,30,06,46,17.70
2018,06,30,06,47,16.10
2018,06,30,06,48,17.70
2018,06,30,06,49,16.10
2018,06,30,06,50,16.10
2018,06,30,06,51,19.30
2018,06,30,06,52,19.30
2018,06,30,06,53,20.90
2018,06,30,06,54,19.30
2018,06,30,06,55,22.50
2018,06,30,06,56,20.90
2018,06,30,06,57,22.50
2018,06,30,06,58,24.20
2018,06,30,06,59,27.40
2018,06,30,07,00,27.40
2018,06,30,07,01,27.40
2018,06,30,07,02,30.60
2018,06,30,07,03,30.60
2018,06,30,07,04,29.00
2018,06,30,07,05,32.20
2018,06,30,07,06,29.00
2018,06,30,07,07,33.80
2018,06,30,07,08,35.40
2018,06,30,07,09,32.20
2018,06,30,07,10,37.00
2018,06,30,07,11,32.20
2018,06,30,07,12,29.00
2018,06,30,07,13,30.60
2018,06,30,07,14,29.00
2018,06,30,07,15,27.40
2018,06,30,07,16,29.00
2018,06,30,07,17,30.60
2018,06,30,07,18,27.40
2018,06,30,07,19,32.20
2018,06,30,07,20,29.00
2018,06,30,07,21,27.40
2018,06,30,07,22,29.00
2018,06,30,07,23,25.70
2018,06,30,07,24,24.20
2018,06,30,07,25,24.20
2018,06,30,07,26,24.20
2018,06,30,07,27,22.50
2018,06,30,07,28,22.50
2018,06,30,07,29,24.20
2018,06,30,07,30,25.70
2018,06,30,07,31,22.50
2018,06,30,07,32,27.40
2018,06,30,07,33,20.90
2018,06,30,07,34,24.20
2018,06,30,07,35,27.40
2018,06,30,07,36,30.60
2018,06,30,07,37,29.00
2018,06,30,07,38,32.20
2018,06,30,07,39,32.20
2018,06,30,07,40,30.60
2018,06,30,07,41,29.00
2018,06,30,07,42,27.40
2018,06,30,07,43,30.60
2018,06,30,07,44,30.60
2018,06,30,07,45,25.70
2018,06,30,07,46,25.70
2018,06,30,07,47,29.00
2018,06,30,07,48,25.70
2018,06,30,07,49,33.80
2018,06,30,07,50,32.20
2018,06,30,07,51,29.00
2018,06,30,07,52,29.00
2018,06,30,07,53,30.60
2018,06,30,07,54,30.60
2018,06,30,07,55,33.80
2018,06,30,07,56,35.40
2018,06,30,07,57,33.80
2018,06,30,07,58,30.60
2018,06,30,07,59,30.60
2018,06,30,08,00,32.20
2018,06,30,08,01,30.60
2018,06,30,08,02,29.00
2018,06,30,08,03,27.40
2018,06,30,08,04,29.00
2018,06,30,08,05,27.40
2018,06,30,08,06,30.60
2018,06,30,08,07,29.00
2018,06,30,08,08,29.00
2018,06,30,08,09,29.00
2018,06,30,08,10,29.00
2018,06,30,08,11,29.00
2018,06,30,08,12,29.00
2018,06,30,08,13,32.20
2018,06,30,08,14,32.20
2018,06,30,08,15,32.20
2018,06,30,08,16,29.00
2018,06,30,08,17,25.70
2018,06,30,08,18,25.70
2018,06,30,08,19,25.70
2018,06,30,08,20,27.40
2018,06,30,08,21,30.60
2018,06,30,08,22,25.70
2018,06,30,08,23,22.50
2018,06,30,08,24,25.70
2018,06,30,08,25,29.00
2018,06,30,08,26,25.70
2018,06,30,08,27,24.20
2018,06,30,08,28,29.00
2018,06,30,08,29,27.40
2018,06,30,08,30,24.20
2018,06,30,08,31,22.50
2018,06,30,08,32,24.20
2018,06,30,08,33,24.20
2018,06,30,08,34,25.70
2018,06,30,08,35,22.50
2018,06,30,08,36,22.50
2018,06,30,08,37,24.20
2018,06,30,08,38,27.40
2018,06,30,08,39,27.40
2018,06,30,08,40,25.70
2018,06,30,08,41,29.00
2018,06,30,08,42,25.70
2018,06,30,08,43,24.20
2018,06,30,08,44,24.20
2018,06,30,08,45,25.70
2018,06,30,08,46,27.40
2018,06,30,08,47,25.70
2018,06,30,08,48,24.20
2018,06,30,08,49,24.20
2018,06,30,08,50,27.40
2018,06,30,08,51,30.60
2018,06,30,08,52,24.20
2018,06,30,08,53,29.00
2018,06,30,08,54,20.90
2018,06,30,08,55,24.20
2018,06,30,08,56,20.90
2018,06,30,08,57,20.90
2018,06,30,08,58,22.50
2018,06,30,08,59,22.50
2018,06,30,09,00,25.70
2018,06,30,09,01,32.20
2018,06,30,09,02,27.40
2018,06,30,09,03,29.00
2018,06,30,09,04,25.70
2018,06,30,09,05,25.70
2018,06,30,09,06,27.40
2018,06,30,09,07,29.00
2018,06,30,09,08,27.40
2018,06,30,09,09,29.00
2018,06,30,09,10,27.40
2018,06,30,09,11,29.00
2018,06,30,09,12,27.40
2018,06,30,09,13,35.40
2018,06,30,09,14,29.00
2018,06,30,09,15,29.00
2018,06,30,09,16,27.40
2018,06,30,09,17,27.40
2018,06,30,09,18,30.60
2018,06,30,09,19,29.00
2018,06,30,09,20,27.40
2018,06,30,09,21,27.40
2018,06,30,09,22,25.70
2018,06,30,09,23,27.40
2018,06,30,09,24,25.70
2018,06,30,09,25,30.60
2018,06,30,09,26,27.40
2018,06,30,09,27,25.70
2018,06,30,09,28,19.30
2018,06,30,09,29,27.40
2018,06,30,09,30,24.20
2018,06,30,09,31,30.60
2018,06,30,09,32,30.60
2018,06,30,09,33,25.70
2018,06,30,09,34,27.40
2018,06,30,09,35,24.20
2018,06,30,09,36,24.20
2018,06,30,09,37,22.50
2018,06,30,09,38,25.70
2018,06,30,09,39,24.20
2018,06,30,09,40,24.20
2018,06,30,09,41,29.00
2018,06,30,09,42,25.70
2018,06,30,09,43,24.20
2018,06,30,09,44,29.00
2018,06,30,09,45,27.40
2018,06,30,09,46,27.40
2018,06,30,09,47,25.70
2018,06,30,09,48,24.20
2018,06,30,09,49,25.70
2018,06,30,09,50,25.70
2018,06,30,09,51,25.70
2018,06,30,09,52,22.50
2018,06,30,09,53,24.20
2018,06,30,09,54,20.90
2018,06,30,09,55,20.90
2018,06,30,09,56,22.50
2018,06,30,09,57,24.20
2018,06,30,09,58,19.30
2018,06,30,09,59,24.20
2018,06,30,10,00,20.90
2018,06,30,10,01,22.50
2018,06,30,10,02,25.70
2018,06,30,10,03,27.40
2018,06,30,10,04,27.40
2018,06,30,10,05,25.70
2018,06,30,10,06,25.70
2018,06,30,10,07,25.70
2018,06,30,10,08,19.30
2018,06,30,10,09,22.50
2018,06,30,10,10,25.70
2018,06,30,10,11,24.20
2018,06,30,10,12,24.20
2018,06,30,10,13,22.50
2018,06,30,10,14,22.50
2018,06,30,10,15,19.30
2018,06,30,10,16,24.20
2018,06,30,10,17,25.70
2018,06,30,10,18,27.40
2018,06,30,10,19,32.20
2018,06,30,10,20,24.20
2018,06,30,10,21,24.20
2018,06,30,10,22,22.50
2018,06,30,10,23,24.20
2018,06,30,10,24,22.50
2018,06,30,10,25,25.70
2018,06,30,10,26,24.20
2018,06,30,10,27,27.40
2018,06,30,10,28,27.40
2018,06,30,10,29,24.20
2018,06,30,10,30,22.50
2018,06,30,10,31,24.20
2018,06,30,10,32,19.30
2018,06,30,10,33,17.70
2018,06,30,10,34,17.70
2018,06,30,10,35,19.30
2018,06,30,10,36,19.30
2018,06,30,10,37,20.90
2018,06,30,10,38,20.90
2018,06,30,10,39,19.30
2018,06,30,10,40,17.70
2018,06,30,10,41,17.70
2018,06,30,10,42,17.70
2018,06,30,10,43,19.30
2018,06,30,10,44,19.30
2018,06,30,10,45,20.90
2018,06,30,10,46,22.50
2018,06,30,10,47,17.70
2018,06,30,10,48,20.90
2018,06,30,10,49,20.90
2018,06,30,10,50,17.70
2018,06,30,10,51,16.10
2018,06,30,10,52,19.30
2018,06,30,10,53,17.70
2018,06,30,10,54,17.70
2018,06,30,10,55,17.70
2018,06,30,10,56,16.10
2018,06,30,10,57,16.10
2018,06,30,10,58,19.30
2018,06,30,10,59,12.90
2018,06,30,11,00,14.50
2018,06,30,11,01,19.30
2018,06,30,11,02,17.70
2018,06,30,11,03,20.90
2018,06,30,11,04,20.90
2018,06,30,11,05,22.50
2018,06,30,11,06,24.20
2018,06,30,11,07,25.70
2018,06,30,11,08,22.50
2018,06,30,11,09,20.90
2018,06,30,11,10,20.90
2018,06,30,11,11,22.50
2018,06,30,11,12,24.20
2018,06,30,11,13,19.30
2018,06,30,11,14,17.70
2018,06,30,11,15,16.10
2018,06,30,11,16,22.50
2018,06,30,11,17,20.90
2018,06,30,11,18,20.90
2018,06,30,11,19,17.70
2018,06,30,11,20,17.70
2018,06,30,11,21,17.70
2018,06,30,11,22,24.20
2018,06,30,11,23,19.30
2018,06,30,11,24,17.70
2018,06,30,11,25,17.70
2018,06,30,11,26,22.50
2018,06,30,11,27,19.30
2018,06,30,11,28,20.90
2018,06,30,11,29,20.90
2018,06,30,11,30,19.30
2018,06,30,11,31,17.70
2018,06,30,11,32,19.30
2018,06,30,11,33,16.10
2018,06,30,11,34,19.30
2018,06,30,11,35,14.50
2018,06,30,11,36,16.10
2018,06,30,11,37,16.10
2018,06,30,11,38,19.30
2018,06,30,11,39,17.70
2018,06,30,11,40,19.30
2018,06,30,11,41,19.30
2018,06,30,11,42,20.90
2018,06,30,11,43,19.30
2018,06,30,11,44,19.30
2018,06,30,11,45,19.30
2018,06,30,11,46,19.30
2018,06,30,11,47,17.70
2018,06,30,11,48,16.10
2018,06,30,11,49,17.70
2018,06,30,11,50,20.90
2018,06,30,11,51,20.90
2018,06,30,11,52,14.50
2018,06,30,11,53,19.30
2018,06,30,11,54,16.10
2018,06,30,11,55,19.30
2018,06,30,11,56,17.70
2018,06,30,11,57,19.30
2018,06,30,11,58,16.10
2018,06,30,11,59,16.10
2018,06,30,12,00,12.90
2018,06,30,12,01,16.10
2018,06,30,12,02,20.90
2018,06,30,12,03,24.20
2018,06,30,12,04,24.20
2018,06,30,12,05,24.20
2018,06,30,12,06,19.30
2018,06,30,12,07,20.90
2018,06,30,12,08,19.30
2018,06,30,12,09,22.50
2018,06,30,12,10,19.30
2018,06,30,12,11,20.90
2018,06,30,12,12,20.90
2018,06,30,12,13,22.50
2018,06,30,12,14,22.50
2018,06,30,12,15,22.50
2018,06,30,12,16,20.90
2018,06,30,12,17,19.30
2018,06,30,12,18,22.50
2018,06,30,12,19,20.90
2018,06,30,12,20,17.70
2018,06,30,12,21,19.30
2018,06,30,12,22,22.50
2018,06,30,12,23,22.50
2018,06,30,12,24,20.90
2018,06,30,12,25,20.90
2018,06,30,12,26,19.30
2018,06,30,12,27,19.30
2018,06,30,12,28,20.90
2018,06,30,12,29,20.90
2018,06,30,12,30,20.90
2018,06,30,12,31,22.50
2018,06,30,12,32,22.50
2018,06,30,12,33,22.50
2018,06,30,12,34,24.20
2018,06,30,12,35,24.20
2018,06,30,12,36,24.20
2018,06,30,12,37,24.20
2018,06,30,12,38,20.90
2018,06,30,12,39,19.30
2018,06,30,12,40,24.20
2018,06,30,12,41,20.90
2018,06,30,12,42,20.90
2018,06,30,12,43,22.50
2018,06,30,12,44,20.90
2018,06,30,12,45,20.90
2018,06,30,12,46,20.90
2018,06,30,12,47,20.90
2018,06,30,12,48,19.30
2018,06,30,12,49,22.50
2018,06,30,12,50,19.30
2018,06,30,12,51,20.90
2018,06,30,12,52,20.90
2018,06,30,12,53,20.90
2018,06,30,12,54,19.30
2018,06,30,12,55,19.30
2018,06,30,12,56,17.70
2018,06,30,12,57,19.30
2018,06,30,12,58,19.30
2018,06,30,12,59,22.50
2018,06,30,13,00,22.50
2018,06,30,13,01,20.90
2018,06,30,13,02,19.30
2018,06,30,13,03,20.90
2018,06,30,13,04,20.90
2018,06,30,13,05,19.30
2018,06,30,13,06,19.30
2018,06,30,13,07,17.70
2018,06,30,13,08,17.70
2018,06,30,13,09,17.70
2018,06,30,13,10,20.90
2018,06,30,13,11,19.30
2018,06,30,13,12,22.50
2018,06,30,13,13,22.50
2018,06,30,13,14,22.50
2018,06,30,13,15,20.90
2018,06,30,13,16,20.90
2018,06,30,13,17,22.50
2018,06,30,13,18,22.50
2018,06,30,13,19,24.20
2018,06,30,13,20,25.70
2018,06,30,13,21,24.20
2018,06,30,13,22,24.20
2018,06,30,13,23,25.70
2018,06,30,13,24,24.20
2018,06,30,13,25,25.70
2018,06,30,13,26,22.50
2018,06,30,13,27,24.20
2018,06,30,13,28,22.50
2018,06,30,13,29,24.20
2018,06,30,13,30,24.20
2018,06,30,13,31,25.70
2018,06,30,13,32,20.90
2018,06,30,13,33,22.50
2018,06,30,13,34,20.90
2018,06,30,13,35,20.90
2018,06,30,13,36,20.90
2018,06,30,13,37,20.90
2018,06,30,13,38,22.50
2018,06,30,13,39,24.20
2018,06,30,13,40,24.20
2018,06,30,13,41,22.50
2018,06,30,13,42,22.50
2018,06,30,13,43,24.20
2018,06,30,13,44,24.20
2018,06,30,13,45,27.40
2018,06,30,13,46,27.40
2018,06,30,13,47,27.40
2018,06,30,13,48,25.70
2018,06,30,13,49,24.20
2018,06,30,13,50,29.00
2018,06,30,13,51,27.40
2018,06,30,13,52,24.20
2018,06,30,13,53,29.00
2018,06,30,13,54,27.40
2018,06,30,13,55,25.70
2018,06,30,13,56,25.70
2018,06,30,13,57,29.00
2018,06,30,13,58,25.70
2018,06,30,13,59,29.00
2018,06,30,14,00,25.70
2018,06,30,14,01,25.70
2018,06,30,14,02,27.40
2018,06,30,14,03,27.40
2018,06,30,14,04,25.70
2018,06,30,14,05,29.00
2018,06,30,14,06,24.20
2018,06,30,14,07,22.50
2018,06,30,14,08,27.40
2018,06,30,14,09,24.20
2018,06,30,14,10,24.20
2018,06,30,14,11,24.20
2018,06,30,14,12,24.20
2018,06,30,14,13,25.70
2018,06,30,14,14,27.40
2018,06,30,14,15,27.40
2018,06,30,14,16,27.40
2018,06,30,14,17,29.00
2018,06,30,14,18,29.00
2018,06,30,14,19,27.40
2018,06,30,14,20,24.20
2018,06,30,14,21,25.70
2018,06,30,14,22,25.70
2018,06,30,14,23,24.20
2018,06,30,14,24,24.20
2018,06,30,14,25,27.40
2018,06,30,14,26,25.70
2018,06,30,14,27,29.00
2018,06,30,14,28,25.70
2018,06,30,14,29,25.70
2018,06,30,14,30,25.70
2018,06,30,14,31,27.40
2018,06,30,14,32,24.20
2018,06,30,14,33,25.70
2018,06,30,14,34,24.20
2018,06,30,14,35,30.60
2018,06,30,14,36,29.00
2018,06,30,14,37,30.60
2018,06,30,14,38,29.00
2018,06,30,14,39,33.80
2018,06,30,14,40,27.40
2018,06,30,14,41,32.20
2018,06,30,14,42,27.40
2018,06,30,14,43,27.40
2018,06,30,14,44,27.40
2018,06,30,14,45,29.00
2018,06,30,14,46,32.20
2018,06,30,14,47,30.60
2018,06,30,14,48,29.00
2018,06,30,14,49,32.20
2018,06,30,14,50,33.80
2018,06,30,14,51,33.80
2018,06,30,14,52,30.60
2018,06,30,14,53,32.20
2018,06,30,14,54,30.60
2018,06,30,14,55,30.60
2018,06,30,14,56,30.60
2018,06,30,14,57,30.60
2018,06,30,14,58,35.40
2018,06,30,14,59,29.00
2018,06,30,15,00,33.80
2018,06,30,15,01,32.20
2018,06,30,15,02,40.20
2018,06,30,15,03,37.00
2018,06,30,15,04,29.00
2018,06,30,15,05,30.60
2018,06,30,15,06,30.60
2018,06,30,15,07,30.60
2018,06,30,15,08,32.20
2018,06,30,15,09,37.00
2018,06,30,15,10,32.20
2018,06,30,15,11,33.80
2018,06,30,15,12,30.60
2018,06,30,15,13,32.20
2018,06,30,15,14,32.20
2018,06,30,15,15,32.20
2018,06,30,15,16,30.60
2018,06,30,15,17,33.80
2018,06,30,15,18,35.40
2018,06,30,15,19,37.00
2018,06,30,15,20,30.60
2018,06,30,15,21,33.80
2018,06,30,15,22,32.20
2018,06,30,15,23,33.80
2018,06,30,15,24,38.60
2018,06,30,15,25,37.00
2018,06,30,15,26,35.40
2018,06,30,15,27,37.00
2018,06,30,15,28,33.80
2018,06,30,15,29,35.40
2018,06,30,15,30,32.20
2018,06,30,15,31,38.60
2018,06,30,15,32,33.80
2018,06,30,15,33,32.20
2018,06,30,15,34,30.60
2018,06,30,15,35,30.60
2018,06,30,15,36,35.40
2018,06,30,15,37,32.20
2018,06,30,15,38,30.60
2018,06,30,15,39,32.20
2018,06,30,15,40,30.60
2018,06,30,15,41,37.00
2018,06,30,15,42,30.60
2018,06,30,15,43,30.60
2018,06,30,15,44,32.20
2018,06,30,15,45,32.20
2018,06,30,15,46,32.20
2018,06,30,15,47,33.80
2018,06,30,15,48,32.20
2018,06,30,15,49,35.40
2018,06,30,15,50,35.40
2018,06,30,15,51,32.20
2018,06,30,15,52,32.20
2018,06,30,15,53,32.20
2018,06,30,15,54,30.60
2018,06,30,15,55,35.40
2018,06,30,15,56,33.80
2018,06,30,15,57,30.60
2018,06,30,15,58,29.00
2018,06,30,15,59,32.20
2018,06,30,16,00,37.00
2018,06,30,16,01,29.00
2018,06,30,16,02,30.60
2018,06,30,16,03,30.60
2018,06,30,16,04,30.60
2018,06,30,16,05,37.00
2018,06,30,16,06,32.20
2018,06,30,16,07,29.00
2018,06,30,16,08,29.00
2018,06,30,16,09,35.40
2018,06,30,16,10,35.40
2018,06,30,16,11,40.20
2018,06,30,16,12,33.80
2018,06,30,16,13,41.80
2018,06,30,16,14,40.20
2018,06,30,16,15,41.80
2018,06,30,16,16,32.20
2018,06,30,16,17,35.40
2018,06,30,16,18,33.80
2018,06,30,16,19,35.40
2018,06,30,16,20,33.80
2018,06,30,16,21,32.20
2018,06,30,16,22,33.80
2018,06,30,16,23,33.80
2018,06,30,16,24,30.60
2018,06,30,16,25,33.80
2018,06,30,16,26,32.20
2018,06,30,16,27,35.40
2018,06,30,16,28,32.20
2018,06,30,16,29,32.20
2018,06,30,16,30,33.80
2018,06,30,16,31,33.80
2018,06,30,16,32,38.60
2018,06,30,16,33,32.20
2018,06,30,16,34,32.20
2018,06,30,16,35,35.40
2018,06,30,16,36,32.20
2018,06,30,16,37,29.00
2018,06,30,16,38,35.40
2018,06,30,16,39,32.20
2018,06,30,16,40,30.60
2018,06,30,16,41,33.80
2018,06,30,16,42,30.60
2018,06,30,16,43,33.80
2018,06,30,16,44,32.20
2018,06,30,16,45,27.40
2018,06,30,16,46,29.00
2018,06,30,16,47,27.40
2018,06,30,16,48,33.80
2018,06,30,16,49,30.60
2018,06,30,16,50,29.00
2018,06,30,16,51,30.60
2018,06,30,16,52,32.20
2018,06,30,16,53,33.80
2018,06,30,16,54,37.00
2018,06,30,16,55,35.40
2018,06,30,16,56,37.00
2018,06,30,16,57,29.00
2018,06,30,16,58,32.20
2018,06,30,16,59,33.80
2018,06,30,17,00,33.80
2018,06,30,17,01,33.80
2018,06,30,17,02,40.20
2018,06,30,17,03,37.00
2018,06,30,17,04,32.20
2018,06,30,17,05,33.80
2018,06,30,17,06,32.20
2018,06,30,17,07,32.20
2018,06,30,17,08,37.00
2018,06,30,17,09,33.80
2018,06,30,17,10,33.80
2018,06,30,17,11,32.20
2018,06,30,17,12,35.40
2018,06,30,17,13,37.00
2018,06,30,17,14,37.00
2018,06,30,17,15,33.80
2018,06,30,17,16,30.60
2018,06,30,17,17,33.80
2018,06,30,17,18,33.80
2018,06,30,17,19,35.40